Theta_e
330 330 329 332 336 338 339 340 342 346 346 345 346 347 347 351 352 354 355 358 357 355 354 355 355 354 352 353 354 355 351 350 352 350 350 349 346 347 350 349 344 340 339
325 325 326 331 336 337 339 340 341 343 345 345 347 348 349 351 352 353 354 357 357 357 355 355 355 355 355 356 355 354 351 351 351 349 342 338 341 343 346 344 341 337 338
325 322 327 331 335 337 338 340 341 342 344 346 349 350 351 351 352 352 352 355 357 357 355 353 352 354 357 357 356 355 349 348 348 349 347 338 334 336 342 340 338 335 336
326 324 326 329 333 337 340 341 341 341 343 346 347 348 346 345 347 350 352 352 355 353 356 357 356 354 356 357 357 357 352 346 345 349 349 346 343 339 337 339 335 336 334
325 323 324 330 333 337 338 340 340 341 344 345 347 346 345 347 347 349 351 353 356 356 353 355 356 354 354 358 359 356 356 352 351 349 350 345 344 342 338 335 333 332 334
326 326 326 329 331 335 338 339 339 341 343 345 346 345 344 345 345 346 348 350 351 355 356 356 355 355 356 357 361 359 356 354 352 352 350 347 345 342 338 335 332 328 332
326 326 324 326 329 332 336 338 339 339 343 345 345 345 345 345 345 345 346 347 348 352 354 356 355 355 356 360 362 357 356 354 352 351 350 350 348 346 342 337 331 327 332
325 326 327 328 329 332 335 338 338 339 343 344 345 345 346 344 344 345 346 347 348 351 356 356 359 358 359 361 359 355 354 354 354 353 352 351 351 348 344 340 332 326 328
324 325 328 329 330 332 334 336 337 339 340 345 346 344 344 344 345 346 348 350 355 354 355 355 354 356 360 356 354 356 354 354 353 354 354 352 352 351 346 343 336 331 325
326 324 326 330 332 332 334 336 337 338 339 341 344 345 345 345 346 346 347 351 353 355 355 354 353 354 353 353 355 356 355 355 354 354 353 351 350 346 344 341 339 335 332
324 324 327 330 334 337 337 338 338 339 340 340 343 345 346 346 347 346 347 348 349 351 352 352 353 352 352 354 356 357 355 354 352 353 350 347 349 345 344 340 336 334 333
337 339 339 339 338 335 337 341 342 342 344 343 343 344 347 349 348 348 349 350 348 350 351 352 353 351 352 355 357 357 358 353 350 350 346 343 345 345 341 339 334 334 331
334 335 337 338 339 342 346 348 348 344 342 346 344 345 346 347 348 350 351 352 351 350 352 354 353 352 354 356 358 359 356 350 353 350 345 342 344 344 340 338 333 332 329
329 331 332 335 338 341 344 347 347 345 344 344 347 348 348 349 350 353 354 353 352 352 351 353 355 355 356 357 358 359 355 351 351 347 344 344 344 345 341 336 334 329 327
324 324 326 329 333 334 336 338 343 344 343 342 343 345 347 350 351 352 353 355 355 354 353 351 351 352 353 354 357 356 351 349 347 344 343 344 346 343 340 335 331 328 326
322 323 324 326 328 330 331 332 333 337 339 338 338 340 342 348 351 352 351 351 353 353 354 353 353 352 353 339 340 350 352 347 345 341 340 343 342 339 335 334 330 330 326
319 321 322 323 325 327 329 328 329 331 334 335 337 338 337 337 345 352 351 351 351 353 353 353 354 354 354 333 334 338 350 347 344 341 339 339 339 338 337 331 329 328 327
317 320 321 322 324 324 326 327 327 327 328 331 334 336 336 334 339 341 343 346 350 351 352 353 354 354 354 331 328 333 348 346 342 340 338 338 336 337 334 330 330 330 330
318 318 321 324 323 324 324 324 324 325 327 328 331 334 334 333 335 335 336 341 344 346 350 354 354 353 354 323 322 334 343 340 339 340 337 335 334 327 325 330 328 328 328
321 321 321 322 321 321 324 320 321 321 323 327 329 333 334 332 333 335 336 339 340 344 349 352 352 339 326 318 321 335 340 337 336 335 336 328 331 321 321 328 328 326 327
316 317 317 314 316 317 318 317 317 317 320 325 328 329 331 332 333 334 334 335 338 338 342 337 334 331 327 325 321 326 342 339 337 337 335 334 321 317 316 320 327 327 327
313 314 313 313 315 316 315 315 314 318 319 323 325 326 327 330 334 333 332 333 334 334 335 331 331 332 332 324 321 323 331 332 336 337 336 335 317 313 314 318 317 314 322
310 311 311 311 313 314 315 313 315 317 317 319 321 323 324 328 331 331 331 330 332 332 334 329 328 329 329 332 318 316 315 320 338 338 331 323 313 311 313 315 314 315 327
308 310 310 309 310 312 313 314 315 317 317 316 318 321 322 323 327 329 331 328 328 330 331 332 328 328 329 329 330 328 330 323 331 326 328 324 321 319 324 322 321 327 327
308 309 308 309 310 312 312 314 315 315 314 316 317 318 320 322 323 325 328 325 326 327 331 332 331 327 327 328 319 321 328 331 326 323 324 322 325 325 324 324 327 327 326
307 307 308 309 310 311 312 313 315 314 314 314 316 317 318 320 322 323 326 316 314 308 305 302 307 323 315 307 308 305 307 308 309 324 323 322 324 326 324 323 325 326 324
Wind_Speed
14 8 9 9 9 8 9 9 9 7 5 2 3 2 3 3 3 3 6 5 4 4 4 3 3 3 3 3 2 1 2 2 2 3 3 2 3 4 3 3 1 3 5
7 7 8 9 12 13 11 8 10 8 7 3 3 3 3 2 2 3 4 4 4 3 3 3 4 3 3 4 3 2 2 2 2 2 1 4 3 2 3 2 0 2 3
13 7 8 11 10 11 13 12 12 9 7 6 3 2 2 1 1 2 3 2 3 3 3 4 4 4 3 3 3 2 3 2 3 3 2 2 2 3 1 3 2 3 3
7 7 10 8 12 14 10 10 9 8 7 7 4 5 4 4 3 2 2 4 3 4 5 6 5 5 3 4 4 2 3 2 3 2 2 2 2 2 4 2 3 2 2
11 11 13 14 13 11 11 9 7 6 7 7 7 6 5 4 3 2 4 4 3 3 5 6 5 5 4 4 4 4 3 3 2 1 1 1 1 2 4 3 1 1 2
12 11 10 8 9 7 8 8 9 9 7 7 8 9 8 6 4 4 4 4 3 3 3 5 5 5 4 5 4 4 4 3 3 2 2 2 2 2 3 3 1 0 1
11 10 10 10 8 11 11 10 10 11 9 9 7 9 9 7 7 6 4 4 3 2 5 3 4 3 5 5 4 3 3 2 2 2 3 3 3 2 2 2 1 1 1
10 12 13 12 13 13 11 12 11 11 9 9 11 7 8 6 6 6 4 4 4 4 4 4 3 4 3 3 3 2 2 2 3 5 4 2 4 2 2 1 3 2 1
7 10 10 12 11 10 12 13 9 9 9 12 8 8 7 8 8 7 5 5 4 4 5 5 5 3 3 2 4 2 2 4 4 4 2 2 2 0 0 2 2 2 2
7 8 7 6 6 6 7 8 9 11 10 8 8 8 9 9 8 5 8 8 8 5 5 5 5 4 4 4 4 3 4 4 3 2 1 1 1 1 1 1 2 1 2
6 4 7 6 7 7 7 8 9 9 9 9 8 9 8 9 7 8 9 10 8 8 7 6 5 5 5 5 5 4 5 4 3 1 1 2 1 0 1 1 1 1 2
12 11 10 9 7 5 1 3 3 6 3 6 7 10 8 7 8 10 10 7 9 8 9 6 5 6 7 6 5 6 4 5 4 2 2 1 1 2 2 2 2 3 3
14 12 15 13 11 9 7 6 3 1 8 5 7 7 7 7 8 8 7 7 8 8 7 6 7 8 8 5 5 7 4 4 5 4 2 1 1 3 2 2 3 3 3
10 11 13 11 9 8 7 9 10 8 4 4 2 2 3 5 5 5 6 7 7 7 7 8 9 8 8 6 7 6 5 5 4 4 3 3 3 5 5 4 5 4 6
10 12 11 9 9 11 10 10 9 10 10 10 9 7 5 4 4 5 5 6 6 7 7 8 9 9 9 7 8 6 6 5 6 5 4 3 4 4 7 6 7 7 5
8 9 9 9 9 8 7 8 8 7 7 9 9 7 7 5 5 6 5 4 6 6 7 9 10 9 7 10 12 8 7 7 6 5 4 3 4 5 7 9 12 10 10
7 8 7 6 6 6 5 6 5 4 7 8 7 7 7 8 8 7 7 6 5 6 8 9 9 10 9 11 11 11 6 7 7 6 6 4 3 5 5 9 11 9 8
9 8 7 7 8 7 8 7 7 7 6 6 6 5 5 6 6 6 6 6 5 6 7 8 9 8 8 13 13 12 7 6 4 4 5 6 6 7 8 8 8 8 7
7 6 7 6 7 8 7 6 5 5 4 4 3 2 1 4 4 6 7 8 9 8 7 7 8 8 7 7 9 9 7 5 3 7 8 8 8 8 11 9 9 7 5
3 5 6 5 6 6 6 4 5 5 5 5 5 4 4 5 4 4 6 4 6 10 9 7 5 5 7 16 16 14 9 5 3 5 10 11 10 14 13 10 10 9 7
4 5 5 5 4 5 5 5 5 6 6 6 6 5 4 4 5 5 3 5 7 6 5 3 2 5 12 15 21 24 15 13 16 13 10 8 11 17 16 10 9 8 7
4 4 5 5 6 6 5 6 6 6 6 5 7 6 5 5 4 5 5 5 5 5 3 3 4 4 8 12 19 21 23 19 12 10 7 7 17 15 16 11 10 11 8
6 5 6 10 10 7 6 10 11 9 10 8 7 8 8 7 6 6 7 4 4 4 6 4 5 5 6 7 9 12 11 10 9 7 11 13 16 15 9 8 10 9 6
7 5 6 9 12 8 8 7 9 9 8 10 10 8 6 9 8 5 5 5 5 5 5 6 6 6 5 4 3 4 5 3 4 6 5 8 9 8 6 4 6 6 6
8 8 10 12 14 12 12 12 11 8 9 10 9 10 8 8 9 8 7 8 8 6 5 7 6 5 6 6 5 5 4 3 3 6 4 4 4 7 6 3 5 5 6
9 10 12 13 13 13 13 12 12 11 11 11 9 8 8 8 7 7 7 12 14 8 8 8 6 5 8 7 9 11 11 10 14 4 4 5 6 7 7 7 6 5 8
Wind_Direction
225 219 207 187 171 181 176 184 175 189 158 151 172 186 210 235 263 259 265 278 242 220 207 224 257 229 258 273 299 299 326 310 348 314 328 311 315 327 293 308 354 24 28
233 219 195 178 184 185 190 181 196 180 188 175 180 164 175 219 254 278 284 256 265 263 228 236 264 276 302 295 282 261 320 298 331 307 326 331 328 315 292 284 277 351 9
225 206 189 193 181 184 187 191 195 193 194 181 137 107 66 45 322 288 305 302 231 248 266 256 250 256 222 272 286 250 214 287 312 227 251 317 288 317 322 336 325 322 340
215 200 193 187 190 202 186 188 190 190 191 170 175 166 174 190 225 228 261 300 281 269 254 241 228 248 231 238 255 288 230 173 259 293 215 263 274 289 319 40 23 11 325
198 200 197 197 202 186 186 182 172 191 193 182 189 190 194 202 193 241 275 282 299 295 261 233 223 233 228 240 241 259 223 205 263 226 323 279 279 264 256 296 12 9 4
203 202 203 187 194 178 170 168 175 205 194 192 194 196 204 209 206 224 238 265 268 296 287 236 228 232 229 235 231 246 234 234 241 272 258 227 259 249 244 247 114 143 50
196 191 175 181 178 181 173 175 178 204 200 199 200 210 216 204 214 231 233 250 281 272 301 261 248 247 233 240 238 242 244 255 245 255 257 216 233 224 218 220 127 169 166
192 194 193 188 191 186 181 181 182 203 188 198 215 208 211 214 215 220 227 240 238 246 258 272 284 263 232 239 224 241 253 245 252 254 245 278 261 226 217 233 161 177 163
200 199 197 195 186 181 183 185 181 194 188 203 201 207 205 211 228 219 222 235 237 252 257 257 273 277 275 215 247 252 266 243 247 257 298 267 287 239 220 191 186 174 158
235 205 191 166 166 158 161 173 180 194 196 188 198 212 210 208 216 199 226 233 245 231 247 259 270 271 239 229 222 237 239 262 270 276 308 334 356 21 111 160 193 172 124
328 156 138 149 147 146 167 184 192 192 195 189 201 209 214 210 208 215 222 219 234 239 233 235 245 252 235 225 218 233 251 269 262 243 109 359 332 71 131 140 98 111 105
43 60 64 62 57 58 65 208 243 218 218 194 196 216 217 205 213 223 226 223 225 227 234 230 231 239 228 227 229 242 211 227 231 200 171 3 305 104 132 163 127 135 117
54 57 61 59 58 55 55 56 28 134 232 184 202 222 212 217 224 234 234 219 226 232 226 216 225 231 231 226 231 241 226 221 212 189 169 188 181 162 166 140 116 108 99
48 62 61 60 55 49 45 39 37 33 35 97 69 295 273 244 239 237 231 233 224 227 213 223 224 228 233 222 227 225 225 201 189 166 167 187 204 197 158 153 141 125 118
51 57 57 51 52 50 39 32 28 40 64 72 67 44 19 349 314 291 266 248 236 230 213 217 228 233 231 233 226 211 202 192 180 171 168 200 222 205 163 154 153 141 133
50 51 50 53 48 42 54 52 39 25 39 52 47 29 32 41 33 7 340 288 267 252 224 225 230 226 227 209 209 190 186 187 183 171 175 168 135 148 161 155 157 161 156
36 39 35 31 32 32 44 51 44 40 51 48 35 26 22 28 12 1 357 356 312 267 253 244 234 240 221 201 200 186 172 178 177 174 174 170 175 167 157 149 151 162 175
29 26 26 21 11 360 14 15 20 22 26 23 22 4 7 27 12 353 338 324 310 294 264 254 244 240 235 190 184 172 164 147 157 204 187 182 184 187 163 152 158 170 184
16 6 360 349 355 359 349 346 354 344 358 346 324 308 68 53 11 346 328 319 319 309 284 261 249 223 232 146 118 146 116 90 155 210 195 187 180 182 165 160 155 164 186
324 324 330 309 309 303 299 298 296 299 319 295 281 297 342 4 350 319 313 293 300 303 300 274 233 178 131 135 134 122 119 115 283 222 220 215 177 172 177 171 162 173 191
231 231 240 247 262 275 282 283 294 305 285 274 281 310 326 309 297 300 287 302 315 311 317 303 253 166 164 170 163 157 171 183 203 203 197 184 188 175 179 175 171 180 150
259 259 242 250 254 258 255 273 263 254 259 295 324 324 302 282 266 269 276 287 301 305 263 268 260 239 209 195 205 193 175 192 199 193 200 164 167 189 184 179 168 146 145
316 314 318 318 317 311 318 316 304 317 321 323 298 287 290 276 247 247 266 273 271 266 270 235 240 241 234 237 272 275 295 256 193 174 153 151 174 172 191 192 162 153 165
321 302 308 308 302 296 280 251 276 287 292 291 291 283 267 274 273 247 242 247 253 250 245 244 243 241 238 236 264 241 264 9 335 97 124 136 157 155 189 158 166 192 185
296 294 288 287 285 287 282 284 279 259 271 271 274 277 273 266 265 255 233 233 238 227 236 241 232 226 247 232 198 211 227 216 183 96 102 116 156 175 169 183 170 178 179
280 277 278 277 277 276 272 268 267 265 272 275 269 262 266 264 263 258 259 239 245 235 229 257 238 265 262 286 231 219 208 179 153 159 160 170 179 187 180 189 179 176 183